Погода в Тюнгюлю

Россия / Республика Саха (Якутия)     62°11′31″N   130°42′47″E
темп.,
°C
ветер,
м/с
пор.,
м/с
влажн.,
%
обл.,
%
осадки,
мм/ч
давл.,
гПа
погр.,
м
3 марта, ср
ср300:00−29зсз1199100 0.1 102319
03:00−30зсз1199100 0.1 102223
06:00−30зсз1199100 0.1 102230
09:00−29з1297100 0.1 1021174
12:00−28з2393100 0.1 1020462
15:00−27зсз2393100 0.1 1018490
18:00−28зсз1398100 0.1 1018102
21:00−29зсз2598100 0.1 1018331
4 марта, чт
чт400:00−30зсз2698100 0.1 1017347
03:00−31з2698100 0.2 1017438
06:00−32з3797100 0.1 1016449
09:00−31зсз3694100 0.3 1017660
12:00−30зсз3591100 0.1 1018776
15:00−30зсз3590100 0.2 1019772
18:00−32зсз2696100 0.1 1020289
21:00−34зсз2898100 0.1 1022370
5 марта, пт
пт500:00−38з239894 0.0 102468
03:00−40з259788 0.0 102591
06:00−40з259788 0.0 1026100
09:00−37з369492 0.0 1027296
12:00−32з3692100 0.0 1027478
15:00−30зсз3691100 0.0 1027573
18:00−32з2597100 0.0 102790
21:00−34з259897 0.0 1028104
6 марта, сб
сб600:00−36з359862 0.0 1027112
03:00−37з239749 0.0 102754
06:00−38з239838 0.0 102731
09:00−35з259630 0.0 1028211
12:00−30з249168 0.0 1027380
15:00−27з238884 0.0 1025462
18:00−31сз119894 0.0 102619
21:00−33в119747 0.0 102619
7 марта, вс
вс700:00−34ю01980 0.0 102519
03:00−35юв11980 0.0 102619
06:00−35вюв11980 0.0 102619
09:00−31юв11960 0.0 102577
12:00−25юв118849 0.0 1024358
15:00−23вюв128570 0.0 1023441
18:00−27в129388 0.0 102319
21:00−30вюв229547 0.0 102419